OpenBCM V1.08-3-g9b42 (Linux)

Packet Radio Mailbox

OK0NBR

[Sao_Jose_dos_Campo]

 Login: GUEST





  
I0OJJ  > KEPS     14.11.25 22:03l 308 Lines 14709 Bytes #196 (0) @ AMSAT
BID : ORB25319.1
Read: GUEST
Subj: 2Line Orbital Elements 25319.AMSAT
Path: OK0NBR<IW0QNL<IZ3LSV<ED1ZAC<CX2SA<EA2RCF<I0OJJ
Sent: 251115/0021z @:I0OJJ.ITA.EU [Rome] obcm1.08-11-2-gbfe9
From: I0OJJ @ I0OJJ.ITA.EU (Gustavo)
To:   KEPS @ AMSAT
X-Info: This message was generated automatically


QST de W1STR

AMSAT Orbital Elements for Amateur Satellites in TLE Format
From Orbital Analysis Office
New England Sci-Tech STEM Education Center
Natick MA November 15, 2025
To all radio amateurs


These element sets describe the orbits of various satellites 
in use by the amateur radio community. For details see:
www.amsat.org/keplerian-elements-formats/

A daily update of element sets is available at:
www.amsat.org/tle/daily-bulletin.txt
or without bulletin text:
www.amsat.org/tle/dailytle.txt


AO-07
1 07530U 74089B   25318.50743573 -.00000018  00000-0  17592-3 0  9993
2 07530 101.9979 324.4771 0012190 179.9138 335.2564 12.53693370333615
UO-11
1 14781U 84021B   25318.85803126  .00003191  00000-0  33636-3 0  9996
2 14781  97.7769 282.3291 0007993 161.0013 199.1504 14.90008167225201
AO-27
1 22825U 93061C   25318.46828108  .00000326  00000-0  14147-3 0  9995
2 22825  98.7187  20.6633 0008608  17.9991 342.1495 14.30861717676295
FO-29
1 24278U 96046B   25318.60358626  .00000043  00000-0  82984-4 0  9995
2 24278  98.5483 191.5112 0348980 293.1428  63.3299 13.53260275444146
GO-32
1 25397U 98043D   25318.46795015  .00000253  00000-0  12937-3 0  9991
2 25397  98.9898 301.0309 0002260 103.0420 257.1011 14.24365501420762
ISS
1 25544U 98067A   25318.54719561  .00013278  00000-0  24309-3 0  9999
2 25544  51.6328 282.0308 0004169  69.9599 290.1838 15.49658592538480
NO-44
1 26931U 01043C   25318.58629549  .00000538  00000-0  23176-3 0  9994
2 26931  67.0508  79.2820 0007259 271.4559  88.5711 14.31831603259728
SO-50
1 27607U 02058C   25318.60471065  .00003166  00000-0  39719-3 0  9993
2 27607  64.5540  72.5434 0070596 301.7924  57.6318 14.82234941232641
CO-55
1 27844U 03031E   25318.76844020  .00000768  00000-0  35236-3 0  9995
2 27844  98.6773 325.0315 0010704  88.6363 271.6042 14.24144836161155
CO-57
1 27848U 03031J   25318.01850114  .00000788  00000-0  36592-3 0  9996
2 27848  98.6805 324.1758 0010570 106.4798 253.7543 14.23457725160764
RS-22
1 27939U 03042A   25318.87163910  .00002725  00000-0  43359-3 0  9996
2 27939  98.3368 132.3332 0010530 224.3797 272.2537 14.72854385183994
CO-58
1 28895U 05043F   25318.36421941  .00004293  00000-0  69518-3 0  9993
2 28895  98.2708 104.9688 0014715 162.9706 197.1997 14.71734541 70145
CO-65
1 32785U 08021C   25318.88030520  .00009423  00000-0  64007-3 0  9999
2 32785  97.8050 291.5891 0010784  44.0175 316.1909 15.06553869952892
CO-66
1 32791U 08021J   25318.41850296  .00021786  00000-0  90180-3 0  9992
2 32791  97.7431 302.6222 0003996  25.2849 334.8582 15.23953341954488
RS-30
1 32953U 08025A   25318.86500728  .00000049  00000-0  28050-3 0  9993
2 32953  82.4993 128.7614 0019829  60.8363 299.4698 12.43170682793069
SRMSAT
1 37841U 11058D   25318.33286117  .00000641  00000-0  20422-3 0  9992
2 37841  19.9724 279.8810 0011677   1.1650 133.6968 14.11497763727428
ZACUBE-1
1 39417U 13066B   25318.61981394  .00007573  00000-0  62453-3 0  9995
2 39417  97.7989 275.1370 0040850 242.0615 117.6470 14.98664878648563
Delfi-N3xt
1 39428U 13066N   25318.49750981  .00010108  00000-0  96166-3 0  9995
2 39428  97.8311 234.5835 0079148 198.4035 161.4317 14.91257619642589
GOMX-1
1 39430U 13066Q   25318.82902709  .00003164  00000-0  48669-3 0  9991
2 39430  97.6624 167.7001 0131934  45.9776 315.2212 14.68408810638447
LO-74
1 39440U 13066AA  25318.83532029  .00007260  00000-0  70476-3 0  9999
2 39440  97.8655 262.5587 0060989  18.9433 341.4034 14.91530419645019
AO-73
1 39444U 13066AE  25318.87508047  .00009720  00000-0  67203-3 0  9997
2 39444  97.8013 281.8328 0038099 209.0616 150.8490 15.05336865647375
DTUSAT-2
1 40030U 14033W   25318.86359471  .00010104  00000-0  60683-3 0  9992
2 40030  98.0734 298.7791 0006494 239.1440 120.9150 15.11103962620273
EO-80
1 40032U 14033Y   25318.87554273  .00010847  00000-0  64975-3 0  9994
2 40032  98.0623 298.2247 0007865 169.5685 190.5707 15.11168992620256
LILACSAT-2
1 40908U 15049K   25318.80607922  .00019484  00000-0  43424-3 0  9999
2 40908  97.4954 343.3482 0006864 321.9828  38.0934 15.43612802562591
IO-86
1 40931U 15052B   25151.18580175  .00001241  00000-0  78118-4 0  9996
2 40931   6.0006  24.0987 0012733 338.8432  21.1169 14.78805930523159
Horyu-4
1 41340U 16012D   25318.84648522  .00054648  00000-0  10205-2 0  9997
2 41340  30.9928 141.0207 0005298 313.2181  46.8025 15.47469189537221
Lapan A3
1 41603U 16040E   25318.85894988  .00005930  00000-0  19848-3 0  9993
2 41603  97.1430 317.4369 0012572  67.7790 292.4785 15.31246192521993
CAS-2T
1 41847U 16066G   25318.63150809  .00002148  00000-0  30956-3 0  9995
2 41847  98.4068  31.6458 0345117  60.2262 303.2786 14.44041545473822
TechnoSat
1 42829U 17042E   25318.70482469  .00004931  00000-0  36798-3 0  9991
2 42829  97.4042 120.1309 0020624 104.3005 256.0512 15.03111103454466
AO-91
1 43017U 17073E   25318.38552139  .00015720  00000-0  75158-3 0  9992
2 43017  97.4972 185.2391 0163346 348.3522  11.3944 15.07989283432962
S-Net D
1 43186U 18014G   25318.46841322  .00009226  00000-0  51297-3 0  9991
2 43186  97.5482 219.7949 0010313  48.8611 311.3509 15.13860594426248
S-Net B
1 43187U 18014H   25318.67432128  .00008865  00000-0  49327-3 0  9994
2 43187  97.5486 219.9783 0010835  43.7357 316.4731 15.13840037426277
S-Net A
1 43188U 18014J   25318.66653080  .00008465  00000-0  47079-3 0  9994
2 43188  97.5494 220.1426 0010795  44.5735 315.6363 15.13870138426276
S-Net C
1 43189U 18014K   25318.67719500  .00009395  00000-0  52240-3 0  9995
2 43189  97.5513 220.1943 0012022  37.4289 322.7777 15.13834245424829
Ten-Koh
1 43677U 18084G   25318.45907666  .00005563  00000-0  43425-3 0  9990
2 43677  98.0683 136.9503 0009257 105.7977 254.4267 15.01540701383928
PO-101
1 43678U 18084H   25318.82255418  .00003661  00000-0  30535-3 0  9998
2 43678  98.1058 141.1648 0007610 114.8157 245.3857 14.99245788384081
QO-100
1 43700U 18090A   25318.74372814  .00000148  00000-0  00000+0 0  9999
2 43700   0.0197 277.4869 0002402 355.4756  74.6841  1.00269830 25522
MinXSS-2
1 43758U 18099A   25318.17511664  .00046618  00000-0  14721-2 0  9996
2 43758  97.4833  25.1884 0009081 324.0970  35.9661 15.32647808381044
AO-95
1 43770U 18099N   25318.44578125  .00015192  00000-0  68693-3 0  9996
2 43770  97.4719  14.9515 0010406  30.6285 329.5556 15.20975279380519
SNUSat 2
1 43782U 18099AA  25318.11428994  .00020996  00000-0  10453-2 0  9999
2 43782  97.4398  10.0202 0010532 334.3860  25.6851 15.17566400380361
SnugLite
1 43784U 18099AC  25318.11111576  .00027062  00000-0  12078-2 0  9992
2 43784  97.4210   9.9670 0002619 354.0825   6.0379 15.21344529380559
ITASat 1
1 43786U 18099AE  25318.11318918  .00018040  00000-0  95284-3 0  9990
2 43786  97.4373   9.0282 0014172  27.2827 332.9147 15.15475310380290
EAGLET 1
1 43790U 18099AJ  25318.62456411  .00007130  00000-0  43313-3 0  9996
2 43790  97.4571   8.8865 0011858  13.7594 346.3956 15.10730215379915
ESEO
1 43792U 18099AL  25318.06193577  .00005469  00000-0  40655-3 0  9996
2 43792  97.4300 359.4121 0011901 353.1762   6.9300 15.03333080379478
JO-97
1 43803U 18099AX  25318.62314260  .00017909  00000-0  70563-3 0  9998
2 43803  97.4470  16.5507 0005658 320.2961  39.7862 15.25638935380825
Suomi 100
1 43804U 18099AY  25317.15088435  .00026175  00000-0  11361-2 0  9993
2 43804  97.4536  13.8590 0010399 327.9723  32.0880 15.22259623380487
ISAT
1 43879U 18111D   25318.73930774  .00040826  00000-0  10491-2 0  9999
2 43879  97.5889 237.3803 0008060  22.4619 337.6977 15.39145903377934
UWE-4
1 43880U 18111E   25318.70458375  .00028477  00000-0  90290-3 0  9994
2 43880  97.5830 234.4953 0011776  26.4753 333.7088 15.32600824377781
Sparrow
1 43881U 18111F   25318.30777868  .00046420  00000-0  11180-2 0  9990
2 43881  97.6067 240.5235 0008494  54.4082 305.7954 15.41088275377988
Prox-1
1 44339U 19036A   25318.47921089  .00015342  00000-0  17595-2 0  9995
2 44339  23.9950 101.7818 0007778  75.8505 284.2857 14.84158646341469
Taurus 1
1 44530U 19059C   25318.84106118  .00010753  00000-0  18605-2 0  9996
2 44530  98.6216 106.1730 0008870 260.6109  99.4092 14.68512696327143
Duchifat 3
1 44854U 19089C   25318.28066341  .00528348  00000-0  25769-2 0  9992
2 44854  36.9309  57.0633 0008221  73.3410 286.8259 15.79955651327603
TO-108
1 44881U 19093C   25318.82446395  .00002387  00000-0  27860-3 0  9993
2 44881  97.7790  31.0772 0015058  73.9311 286.3561 14.86012338319571
FloripaSat 1
1 44885U 19093G   25318.84497782  .00009133  00000-0  72347-3 0  9991
2 44885  97.8066  46.9134 0012120  60.1756 300.0670 15.00747208320460
RS-44
1 44909U 19096E   25318.71267235  .00000035  00000-0  10269-3 0  9992
2 44909  82.5182 122.2345 0216576 285.9039  71.8291 12.79745365274916
SALSAT
1 46495U 20068K   25318.85972420  .00011193  00000-0  44203-3 0  9991
2 46495  97.8770 304.6458 0010090 343.7864  16.3049 15.25660997282637
CSS (TIANHE-1)
1 48274U 21035A   25318.71809687  .00030906  00000-0  35704-3 0  9991
2 48274  41.4648 186.7518 0003813  27.8492 332.2550 15.61215917259652
TUBIN
1 48900U 21059X   25318.81427071  .00260005  00000-0  90900-3 0  9991
2 48900  97.6679 143.2911 0001976 343.7264  16.3943 15.88645987244861
CUTE
1 49263U 21088D   25318.69821815  .00055932  00000-0  78863-3 0  9991
2 49263  97.4374  40.3375 0005767  24.4967 335.6561 15.56418467228939
TeikyoSat 4
1 49396U 21102B   25318.34513575  .00003779  00000-0  24619-3 0  9990
2 49396  97.3943 351.0092 0010993 318.9560  41.0841 15.08459417220323
Z-Sat
1 49399U 21102E   25318.86141094  .00007415  00000-0  38752-3 0  9997
2 49399  97.3628 355.6450 0015764 275.2340  84.7094 15.16063719220943
